Погода в Полоцке

Погода в Полоцке : погода сейчас, прогноз погоды и архив. Всё, что Вы хотите узнать о погоде в Полоцке!

Хотите узнать прогноз погоды в Полоцке? Тогда Вам сюда: Погода в Полоцке

Поиск расширенной информации на нашем сайте:

Другие новости

Новости СМИ2

Главная страница сайта

Новости сайта

02.10.2013

Напоминаем, что на нашем новом сайте вы можете получить высокодетализированные прогнозы погоды по пунктам России, СНГ и мира (включающие важные для авиации метеовеличины, такие как направление и скорость ветра, видимость, явления погоды, количество и форма облачности, нижняя и верхняя граница облачности), а также ознакомиться с разнообразными материалами по авиационной метеорологии и подборкой полезных ссылок на эту тему.

Сайт Метеоцентр.Азия посвящён разработке технологий оптимизации авиаметеорологического обслуживания, включая проектирование и перспективное создание нескольких автоматизированных авиаметеорологических систем:
- система выпуска высокодетальных прогностических карт явлений погоды для нижнего воздушного пространства по России и ближнему зарубежью;
- система верификации прогнозов TAF (выпускаемых синоптиками официальных АМСГ РФ и ближнего зарубежья) и AUTOTAF (выпускаемых сайтом Метеоцентр.Азия) - выявление ошибок, онлайн-сопоставление с фактической погодой METAR, автоматическое внесение коррективов в прогнозы при резком отклонении фактической погоды от прогноза, подсчёт оправдываемости прогнозов по элементам и в целом;
- система обработки, анализа и отображения авиаметеорологической информации для применения провайдерами метеорологической информации.


Погода в Полоцке - сегодня

Время (UTC), дата Ветер
(°,м/с) 
Видим.   Явления Облачность Т
(°С)
Тd
(°С)
f(%) Тe
(°С)
Pmin
(гПа)
dP
(гПа)
Po
(мм)
O2
(г/м3)
Тmin Tmax R s Состояние
почвы
06 21.01.17 310 (СЗ) 10 км  в посл. час ливневой дождь  10/10 270 м 
[St]
+1.2 -0.8 86 +2  1019  1.4  752  302  +0.7    17  равномерный
мокрый или
старый снег
100% 
12 21.01.17 300 (СЗ) 20000 м  {ливн. осадки}  10/3 300 м верхняя 
[Sc|Cs]
+1.3 -3.9 68 +1  1021.9  0.7  754  303           
15 21.01.17 тихо ()   10 км    4/0 средняя, верхняя 
[Ac trans|Ci fib]
-2 -4.3 84 -2  1024.9  2.7  756  307      0.1     
18 21.01.17 тихо ()   10 км    ясно 
-3.9 -5.4 89 -4  1026.5  1.5  757  310    +1.6  0.1  17   
21 21.01.17 280 (З) 10 км    8/8 570 м 
[Sc]
-2.4 -4.3 87 -2  1028.2  1.8  758  309           
00 22.01.17 270 (З) 10 км    8/8 600 м 
[Sc]
-3.7 -4.8 92 -3  1028.9  0.6  759  311           
03 22.01.17 280 (З) 2000 м  в посл. час туман  10/10 120 м 
[St]
-2.6 -3.6 93 -4  1028.3  -0.5  758  309        17   
06 22.01.17 230 (ЮЗ) 10 км  {туман}  10/10 60 м 
[St]
-1.2 -2.5 91 -2  1026.5  -1.7  757  307  -4      17  равномерный
сухой снег
100% 
09 22.01.17 270 (З) 15000 м    10/10 180 м 
[St]
+0.4 -1.5 87 -2  1026.1  -0.4  757  305           
12 22.01.17 260 (З) 4{11}  15000 м    10/10 270 м 
[St]
+1.3 -1.3 83 -1  1025.2  -0.8  756  303           
15 22.01.17 270 (З) 10 км    10/10 210 м 
[St]
+1.2 -1.1 85 1025.1  -0.1  756  304           
18 22.01.17 260 (З) 10 км    10/10 180 м 
[St]
+0.6 -1.1 88 1024.9  -0.2  756  304    +1.4    16   
21 22.01.17 280 (З) 10 км    10/10 180 м 
[St]
+0.2 -1.5 88 -2  1024.7  -0.3  756  305           
00 23.01.17 270 (З) 10 км    10/10 150 м 
[St]
-0.4 -1.6 92 -2  1023.5  -1.1  755  305           
03 23.01.17 260 (З) 10 км    10/10 150 м 
[St]
-0.4 -1.9 90 -2  1022.2  -1.3  754  305        16   
06 23.01.17 270 (З) 10 км    10/10 180 м 
[St]
-0.8 -2.6 88 -3  1020.8  -1.4  753  305  -0.8      16  равномерный
мокрый или
старый снег
100% 
09 23.01.17 260 (З) 10 км    10/10 180 м 
[St]
-0.8 -2.6 88 -2  1020.2  -0.6  753  304           
12 23.01.17 270 (З) 10 км  слаб. снег  10/10 180 м 
[Frnb|Ns]
-1.1 -2.9 88 -4  1018.5  -1.6  751  304           
15 23.01.17 260 (З) 3{10}  8000 м  слаб. переохл. морось (гололёд){снег} [диам. гололёда 0 мм]  10/10 180 м 
[St]
-1.3 -2.8 90 -3  1017.4  -1.1  751  304      0.0     
18 23.01.17 230 (ЮЗ) 9000 м  слаб. переохл. морось (гололёд){снег} [диам. гололёда 0 мм]  10/10 240 м 
[St]
-1.1 -3.7 82 -3  1016  -1.4  749  304    -0.4  0.0  16   
21 23.01.17 260 (З) 8000 м  слаб. снег{морось} [диам. гололёда 0 мм]  10/10 300 м 
[Frnb|Ns]
-0.9 -3.8 81 -3  1014.7  -1.3  749  303           
00 24.01.17 260 (З) 9000 м  слаб. снег{морось}  10/10 330 м 
[Frnb|Ns]
-0.6 -3.4 81 -2  1013.3  -1.3  748  302           
03 24.01.17 250 (З) 8000 м  слаб. снег  10/10 300 м 
[Frnb|Ns]
-0.4 -3.1 82 -2  1012.7  -0.6  747  302      0.0  16   
06 24.01.17 270 (З) 6000 м  слаб. снег  10/10 150 м 
[Frnb|Ns]
-0.1 -0.9 94 -2  1013.1  0.4  747  301  -1.1    0.1  16  равномерный
сухой снег
100% 
12 24.01.17 290 (З) 8000 м  слаб. снег  10/10 330 м 
[Frnb|Ns]
+1.7 -1.1 82 +1  1014.4  0.3  748  300           
Время (UTC), дата Ветер
(°,м/с) 
Видим.   Явления Облачность Т
(°С)
Тd
(°С)
f(%) Тe
(°С)
Pmin
(гПа)
dP
(гПа)
Po
(мм)
O2
(г/м3)
Тmin Tmax R s Состояние
почвы

Для получения пояснительной информации подведите курсор к названию столбца.

ПОГОДА в Полоцке - архив

Всё, что Вы хотите узнать о погоде в Полоцке - удобно и подробно!

Выберите нужную дату (начиная с 1 января 2015* года) и нажмите кнопку "Найти".
Будут отображены архивные сводки погоды по пункту Полоцк, начиная с указанной даты.


Отображать данные в формате CSV (для использования в таблицах Excel)


Внимание! Наш архив погоды предназначен исключительно для личного некоммерческого использования в познавательных целях. Если Вам необходимы официальные справки о состоянии погоды (для производственных, юридических, коммерческих и т.п. целей), обращайтесь в органы Росгидромета.

*Примечание: данная дата относится к архиву по метеостанциям СССР (Россия, СНГ, Балтия).
Архив по метеостанциям Зарубежной Европы и Азии (кроме Китая) хранится 10 дней, по другим регионам земного шара (Китай, Африка, Америка, Австралия, Океания) - 1 день.

Полоцк - район местоположения метеостанции


Название, широта, долгота, высота метеостанции:
Полоцк 55.5°ш. 28.8°д. 133 м над ур. моря [Беларусь]

Дополнительная информация

В oтличие oт бoльшинства пoгoдных сайтoв мы публикуем пoдрoбную метеoинфoрмацию в детальнoм прoфессиoнальнoм фoрмате.

Характеристики температуры и влажнoсти вoздуха измеряются на высoте 2 м в тени вдали oт зданий и деревьев.
Скoрoсть ветра измеряется на высoте 10 м (на урoвне рoста челoвека скoрoсть ветра ниже в 1.5-2 раза). Если метеoстанция нахoдится в гoрoде или в лесу, тo скoрoсть ветра занижена на 2-4 м/с пo сравнению с oткрытым местoм. Скoрoсть ветра над акватoриями крупных рек и oзёр, а также на вершинах хoлмoв на 2-5 м/с выше, чем в oбычных услoвиях.
Атмoсфернoе давление в разных тoчках местнoсти мoжет значительнo oтличаться oт давления на метеoстанции, в зависимoсти oт услoвий рельефа (при пoдъёме на 10 м давление пoнижается примернo на 1 мм рт.ст.).